Weather Service Report


850 
ASUS43 KMPX 201010
RWRMN 
WEATHER ROUNDUP FOR MINNESOTA
NATIONAL WEATHER SERVICE TWIN CITIES/CHANHASSEN MN
500 AM CDT SUN APR 20 2014


NOTE: "FAIR" INDICATES FEW OR NO CLOUDS BELOW 12,000 FEET WITH NO
SIGNIFICANT WEATHER AND/OR OBSTRUCTIONS TO VISIBILITY. N/A MEANS
CURRENT SKY AND/OR WEATHER CONDITIONS ARE NOT AVAILABLE.

MNZ060>063-068>070-201100-
   Twin Cities Metro   
  
CITY           SKY/WX    TMP DP  RH WIND       PRES   REMARKS
TWIN CITIES    CLOUDY    47  32  56 CALM      30.02S                  
ST PAUL        CLOUDY    49  49 100 CALM      30.03R FOG              
CRYSTAL        FOG       45  45 100 CALM      30.01S VSB 1/4          
BLAINE         FOG       46  46 100 CALM      30.01S VSB<1/4          
EDEN PRAIRIE   CLOUDY    51  50  96 CALM      30.01R FOG              
LAKEVILLE      CLOUDY    48  48 100 CALM      30.02R FOG              
SOUTH ST PAUL  FOG       54  53  94 CALM      30.02R VSB 1/4          
LAKE ELMO      FOG       50  50 100 CALM      30.02S VSB 1/2          
$$
MNZ001>005-007-008-013>017-022>024-027-028-201100-
   Northwest Minnesota   
  
CITY           SKY/WX    TMP DP  RH WIND       PRES   REMARKS
BEMIDJI        CLEAR     28  27  96 CALM      30.02S                  
HALLOCK        CLOUDY    32  30  93 CALM      30.02R                  
ROSEAU         CLEAR     30  27  86 SW3       30.00S                  
WARROAD        CLEAR     30  27  86 S5        30.01R WCI  25          
THIEF RVR FALL CLEAR     32  28  86 S3        30.01S                  
CROOKSTON      CLEAR     32  30  93 CALM      30.02R                  
FOSSTON        CLEAR     28  25  86 CALM      30.02S                  
DETROIT LAKES  CLEAR     36  36 100 S3        30.03F                  
MOORHEAD       CLEAR     36  36 100 CALM      30.03F                  
PARK RAPIDS    CLEAR     32  29  88 CALM      30.03S                  
$$
MNZ006-009>011-018-025>026-201100-
   North Central Minnesota   
  
CITY           SKY/WX    TMP DP  RH WIND       PRES   REMARKS
BAUDETTE       CLEAR     32  30  92 SW3       30.00F                  
FLAG ISLAND    CLEAR     32  28  86 SW6       29.99R WCI  26          
INTL FALLS     CLEAR     34  30  85 CALM      30.00S                  
WASKISH        CLEAR     28  27  93 CALM      30.02R                  
BIG FORK       CLEAR     28  27  93 CALM      30.03S                  
LONGVILLE      CLEAR     28  28 100 CALM      30.03S                  
GRAND RAPIDS   CLEAR     34  28  80 CALM      30.03R                  
CRANE LAKE     CLEAR     25  23  93 CALM      30.04R                  
ORR            CLEAR     34  30  86 CALM      30.01R                  
COOK             N/A     32  30  93 CALM      30.03R FOG              
$$
MNZ012-019>021-037-201100-
   Northeast Minnesota   
  
CITY           SKY/WX    TMP DP  RH WIND       PRES   REMARKS
DULUTH         CLEAR     36  33  89 NW8       30.02R                  
ELY            CLEAR     30  28  93 CALM      30.01S FOG              
HIBBING        CLEAR     28  26  92 CALM      30.02R                  
EVELETH        CLEAR     28  27  93 CALM      30.03S                  
DULUTH HARBOR  CLEAR     28  27  93 CALM      30.05R FOG              
TWO HARBORS    CLEAR     28  23  80 CALM      30.00R HAZE             
SILVER BAY     CLEAR     25  25 100 CALM      30.00S                  
GRAND MARAIS     N/A     30  28  92 CALM      30.00S                  
G MARAIS ARPRT CLEAR     36  32  87 W7        29.99S                  
$$
MNZ029>031-032-039>041-046>048-054>057-064-201100-
   West Central Minnesota   
  
CITY           SKY/WX    TMP DP  RH WIND       PRES   REMARKS
FERGUS FALLS   CLEAR     43  34  70 E7        30.00S                  
WHEATON        CLEAR     39  37  93 CALM      30.06R                  
MORRIS         CLEAR     39  34  81 E7        30.02S                  
ALEXANDRIA     CLEAR     42  34  73 E6        30.05R                  
ELBOW LAKE     FAIR      43  36  75 E8        30.02S                  
WADENA         CLEAR     32  30  93 CALM      30.03S                  
GLENWOOD       CLEAR     37  34  87 NE9       30.05R                  
APPLETON       PTCLDY    34  30  86 CALM      30.02S                  
BENSON         PTCLDY    30  28  93 E6        30.03S WCI  24          
ORTONVILLE     PTCLDY    41  34  75 N7        30.03R                  
MADISON        PTCLDY    39  36  87 W8        30.03R                  
WILLMAR        FAIR      36  34  93 CALM      30.04S FOG              
$$
MNZ033>034-036-042>043-049>051-058-059-201100-
   Central Minnesota     
  
CITY           SKY/WX    TMP DP  RH WIND       PRES   REMARKS
ST CLOUD       CLEAR     40  37  89 CALM      30.03S FOG              
SAUK CENTRE    FAIR      37  32  82 CALM      30.05S                  
PAYNESVILLE    CLEAR     33  32  95 CALM      30.04R                  
AITKIN         CLEAR     34  28  80 CALM      30.03R                  
PINE RIVER     CLEAR     28  27  93 CALM      30.07S                  
BRAINERD       CLEAR     35  29  78 CALM      30.05R                  
STAPLES        CLEAR     36  32  87 CALM      30.04S                  
LONG PRAIRIE   FAIR      39  34  81 CALM      30.05R                  
LITTLE FALLS     N/A     32  30  93 CALM      30.05R FOG              
LITCHFIELD     FOG       39  39 100 CALM      30.03S VSB 1            
BUFFALO        PTCLDY    37  36  93 CALM      30.03S FOG              
MAPLE LAKE       N/A     36  36 100 CALM      30.03R FOG              
$$
MNZ037-044-045-052-053-201100-
   East Central Minnesota   
  
CITY           SKY/WX    TMP DP  RH WIND       PRES   REMARKS
PRINCETON      FOG       32  30  93 CALM      30.04R VSB 1/4          
MORA             N/A     32  32 100 CALM      30.05R FOG              
CAMBRIDGE      MOCLDY    34  27  75 CALM      30.01R HAZE             
RUSH CITY      CLEAR     31  30  96 CALM      30.03R                  
MOOSE LAKE     CLEAR     28  27  93 CALM      30.02R                  
HINCKLEY       FAIR      32  32 100 CALM      30.03R FOG              
CLOQUET        CLEAR     28  27  93 NW7       30.02S FOG     WCI  21  
MCGREGOR       CLEAR     34  32  93 CALM      30.04S                  
$$
MNZ071>073-080-081-089-090-097-098-201100-
   Southwest Minnesota   
  
CITY           SKY/WX    TMP DP  RH WIND       PRES   REMARKS
MONTEVIDEO     PTCLDY    41  34  75 W5        30.04R                  
GRANITE FALLS  PTCLDY    36  33  88 W5        30.04R                  
CANBY          CLEAR     41  36  82 W7        30.05S                  
MARSHALL       PTCLDY    41  32  70 NW13      30.02R                  
REDWOOD FALLS  MOCLDY    49  45  86 N3        30.01S                  
OLIVIA         PTCLDY    41  37  87 CALM      30.01S FOG              
PIPESTONE      CLOUDY    52  39  62 E3        30.01S                  
WINDOM         MOCLDY    52  37  58 E5        30.02S                  
WORTHINGTON    MOCLDY    52  39  62 NE5       30.03S                  
JACKSON        MOCLDY    50  43  76 E6        30.02R                  
TRACY          CLOUDY    53  43  67 CALM      30.02S                  
SLAYTON        CLOUDY    52  43  72 CALM      30.03R                  
$$
MNZ065>067-074>077-082>085-091>093-201100-
   South Central Minnesota  
  
CITY           SKY/WX    TMP DP  RH WIND       PRES   REMARKS
MANKATO        CLOUDY    52  46  82 E3        30.02S                  
NEW ULM          N/A     54  46  76 SE3       30.01S                  
ST JAMES       CLOUDY    50  46  87 CALM      30.02S                  
FAIRMONT       CLOUDY    52  45  76 CALM      30.03S                  
GLENCOE        MOCLDY    47  45  90 CALM      30.01S FOG              
FARIBAULT      HAZE      54  48  82 CALM      30.03R VSB 3/4          
OWATONNA       DRIZZLE   54  50  87 SE5       30.02S                  
WASECA         LGT RAIN  54  52  94 NE3       30.03F                  
ALBERT LEA     LGT RAIN  55  52  88 CALM      30.02S                  
$$
MNZ078>079-086>088-094>096-201100-
   Southeast Minnesota   
  
CITY           SKY/WX    TMP DP  RH WIND       PRES   REMARKS
ROCHESTER      LGT RAIN  55  47  74 SW10      30.06R                  
RED WING       CLOUDY    50  48  93 CALM      30.02S FOG              
STANTON        FOG       50  48  93 CALM      30.01R VSB 1/4          
DODGE CENTER   LGT RAIN  59  50  72 S13       30.03S                  
WINONA           N/A    N/A N/A N/A MISG        N/A                   
AUSTIN         LGT RAIN  54  50  87 CALM      30.04F                  
PRESTON        CLOUDY    58  44  59 S12       30.05S                  
$$
ABBREVIATIONS USED IN REMARKS
   TC - TEMPERATURES IN CELSIUS
  WCI - WIND CHILL INDEX
   HX - HEAT INDEX
  VSB - VISIBILITY 
$$

Return to Home page


Western Regional Climate Center, wrcc@dri.edu